,

(GMT )
Banff

Weather History for CWZG - January, 2014

Change the Weather History Date:

Saturday, January 25, 2014

  Actual Average Record
Temperature  
Mean Temperature 25 °F -  
Max Temperature 31 °F - - ()
Min Temperature 19 °F - - ()
Degree Days  
Heating Degree Days 40    
Moisture  
Dew Point 19 °F    
Average Humidity 83    
Maximum Humidity 93    
Minimum Humidity 64    
Precipitation  
Precipitation 0.34 in - - ()
Sea Level Pressure  
Sea Level Pressure 30.32 in    
Wind  
Wind Speed 10 mph ()    
Max Wind Speed 16 mph    
Max Gust Speed 26 mph    
T = Trace of Precipitation, MM = Missing Value Source: Averaged Metar Reports

Daily Weather History Graph

Daily Weather History Graph

Search for Another Location

Airport or City:

Trip Planner

Search our weather history database for the weather conditions in past years. The results will help you decide how hot, cold, wet, or windy it might be!

Date:

Astronomy

Jan. 25, 2014 Rise Set
Actual Time 8:29 AM MST 5:20 PM MST
Civil Twilight 7:52 AM MST 5:57 PM MST
Nautical Twilight 7:11 AM MST 6:38 PM MST
Astronomical Twilight 6:32 AM MST 7:17 PM MST
Moon 3:03 AM MST (1/25) 12:25 PM MST (1/25)
Length of Visible Light 10h 05m
Length of Day
8h 51m
Waning Crescent, 33% of the Moon is Illuminated
Jan 25
Waning Crescent
Jan 30
New
Feb 6
First Quarter
Feb 14
Full
Feb 22
Last Quarter

Hourly Weather History & Observations

Time (MST) Temp. Windchill Dew Point Humidity Pressure Visibility Wind Dir Wind Speed Gust Speed Precip Events Conditions
12:00 AM 21.2 °F 11.7 °F 19.6 °F 93% 30.47 in - WSW 8.1 mph - N/A   Unknown
1:00 AM 21.2 °F 10.9 °F 19.6 °F 93% 30.46 in - SW 9.2 mph 17.3 mph N/A   Unknown
2:00 AM 21.2 °F 9.5 °F 19.4 °F 93% 30.45 in - SW 11.5 mph 18.4 mph N/A   Unknown
3:00 AM 20.8 °F 10.4 °F 19.0 °F 93% 30.43 in - WSW 9.2 mph - N/A   Unknown
4:00 AM 21.0 °F 9.3 °F 19.2 °F 93% 30.40 in - WSW 11.5 mph 20.7 mph N/A   Unknown
5:00 AM 20.8 °F 7.3 °F 18.9 °F 92% 30.39 in - WSW 15.0 mph 23.0 mph N/A   Unknown
6:00 AM 20.7 °F 7.1 °F 18.7 °F 92% 30.38 in - SW 15.0 mph 25.3 mph N/A   Unknown
7:00 AM 20.1 °F 6.9 °F 18.0 °F 91% 30.35 in - SW 13.8 mph 20.7 mph N/A   Unknown
8:00 AM 19.8 °F 7.1 °F 17.8 °F 92% 30.34 in - SW 12.7 mph 23.0 mph N/A   Unknown
9:00 AM 19.9 °F 8.6 °F 17.4 °F 90% 30.34 in - SW 10.4 mph 18.4 mph N/A   Unknown
10:00 AM 22.1 °F 10.0 °F 17.2 °F 82% 30.33 in - SW 12.7 mph 21.9 mph N/A   Unknown
11:00 AM 23.7 °F 10.5 °F 17.8 °F 78% 30.31 in - SW 16.1 mph 26.5 mph N/A   Unknown
12:00 PM 26.2 °F 14.7 °F 18.0 °F 71% 30.28 in - SW 13.8 mph 21.9 mph N/A   Unknown
1:00 PM 28.6 °F 18.7 °F 18.9 °F 67% 30.25 in - SW 11.5 mph 19.6 mph N/A   Unknown
2:00 PM 30.6 °F 20.7 °F 19.8 °F 64% 30.23 in - SW 12.7 mph 21.9 mph N/A   Unknown
3:00 PM 31.3 °F 21.6 °F 20.5 °F 64% 30.24 in - SW 12.7 mph 21.9 mph N/A   Unknown
4:00 PM 31.1 °F 21.9 °F 20.8 °F 66% 30.25 in - SW 11.5 mph 19.6 mph N/A   Unknown
5:00 PM 28.6 °F 19.3 °F 21.0 °F 73% 30.25 in - SW 10.4 mph 20.7 mph N/A   Unknown
6:00 PM 27.5 °F 19.3 °F 19.9 °F 73% 30.26 in - SSW 8.1 mph - N/A   Unknown
7:00 PM 24.1 °F 14.4 °F 19.4 °F 82% 30.27 in - SW 9.2 mph - N/A   Unknown
8:00 PM 21.9 °F 11.0 °F 18.3 °F 86% 30.27 in - WSW 10.4 mph - N/A   Unknown
9:00 PM 22.1 °F 13.7 °F 17.6 °F 83% 30.27 in - SW 6.9 mph - N/A   Unknown
10:00 PM 20.1 °F 12.3 °F 17.6 °F 90% 30.27 in - WSW 5.8 mph - N/A   Unknown
11:00 PM 19.8 °F 10.8 °F 17.2 °F 90% 30.25 in - West 6.9 mph 17.3 mph N/A   Unknown